Wind_Speed
18 18 19 18 17 17 15 16 14 12 13 11 10 8 8 7 7 9 9 8 8 6 2 2 2 6 7 10 14 14 13 10 8 7 11 11 12 12 12 10 9 8 7
15 15 16 17 17 16 16 15 14 13 11 10 12 14 13 8 9 10 11 9 8 4 1 5 7 10 10 13 15 13 9 6 8 10 9 9 8 8 7 6 7 7 8
17 14 14 14 14 15 15 15 14 11 10 10 13 16 17 13 12 12 11 9 7 4 2 9 11 11 13 15 13 10 6 7 8 7 6 7 6 6 5 6 7 8 10
18 16 14 13 11 14 15 14 12 9 8 9 10 17 23 19 16 14 10 6 4 4 5 9 11 13 14 13 9 8 7 7 7 7 6 7 6 4 3 5 5 9 8
20 18 14 14 14 15 16 13 11 8 7 8 2 9 24 20 18 12 7 3 5 5 4 7 13 13 13 11 8 8 8 8 8 8 6 6 7 4 2 7 7 10 11
20 20 16 18 19 17 17 15 12 9 7 12 11 13 16 17 16 12 8 6 6 8 6 9 14 14 13 10 8 9 9 9 8 8 9 9 8 8 8 9 12 10 8
25 23 20 20 22 20 19 16 12 10 9 16 15 10 12 12 11 9 8 7 7 8 8 11 13 13 12 10 9 9 10 10 9 10 9 9 10 8 8 10 10 12 14
27 24 21 19 22 22 22 18 14 11 10 14 18 14 12 11 10 9 9 8 10 10 9 11 10 12 11 10 9 10 10 10 10 11 9 9 8 8 8 9 10 13 15
26 24 20 17 18 20 19 19 14 12 12 14 15 14 11 10 10 10 9 10 10 10 12 11 9 10 10 9 9 9 10 9 9 9 9 8 8 8 9 10 11 13 14
20 21 21 19 9 12 15 17 15 14 13 14 15 14 12 11 10 10 9 9 10 10 11 11 9 9 9 8 9 10 11 10 10 10 10 10 9 8 8 9 8 8 10
21 24 23 19 12 12 16 19 19 18 16 14 15 14 11 10 9 8 10 9 9 11 11 11 9 9 8 7 8 9 11 11 11 12 12 11 11 9 8 8 10 10 11
23 23 21 21 18 16 16 17 20 21 19 17 16 14 11 8 6 7 7 8 11 12 13 14 11 8 6 4 5 7 9 11 11 11 11 10 11 11 11 11 11 12 13
24 22 21 22 20 17 16 17 17 18 21 20 18 14 14 14 13 13 13 14 12 13 16 18 15 13 10 8 6 8 10 11 11 12 13 11 10 12 13 13 13 13 14
24 22 21 23 22 20 20 20 19 18 18 18 18 15 15 14 14 13 14 14 15 17 17 18 18 18 18 16 14 12 12 11 12 14 13 15 14 14 13 14 16 16 16
25 26 23 22 24 23 22 21 21 21 20 18 16 16 18 19 19 20 21 22 21 22 23 23 23 24 23 23 22 19 17 15 15 16 16 16 17 18 17 16 17 18 19
28 28 28 27 26 26 27 26 26 23 21 21 21 22 23 25 26 24 26 28 29 29 30 29 27 28 28 26 26 24 22 20 18 20 21 22 21 19 20 19 19 19 20
33 32 34 32 33 32 32 30 28 26 26 25 25 26 27 30 27 30 30 32 34 34 36 37 36 32 28 31 30 27 27 23 23 24 23 25 26 26 23 21 20 21 21
39 41 39 36 38 36 33 31 29 28 27 26 27 29 29 30 32 33 34 35 36 36 37 39 40 36 31 31 31 32 33 30 24 23 26 26 28 29 27 24 21 21 23
32 43 47 45 42 42 41 38 36 35 34 33 35 31 31 30 29 28 26 25 25 25 29 33 35 36 35 35 35 36 37 35 31 28 26 26 28 30 29 25 22 20 22
34 35 47 56 53 49 47 48 45 39 32 36 39 32 29 25 25 21 20 21 22 22 22 25 29 32 33 36 39 40 44 39 39 36 29 27 28 30 30 26 24 22 22
34 38 42 50 57 53 45 41 35 39 38 42 37 31 24 24 22 19 19 20 21 22 23 24 26 28 32 34 40 42 47 51 49 43 36 32 31 32 30 27 24 23 22
40 39 42 46 52 52 55 30 37 30 36 37 30 25 24 22 20 19 20 20 22 23 25 26 27 30 35 43 45 53 55 55 54 48 43 40 34 33 30 27 24 24 22
37 48 43 43 43 45 41 37 22 22 34 27 26 25 24 22 20 20 20 21 23 24 27 28 30 35 39 48 57 59 56 58 55 48 44 40 34 33 29 25 21 21 22
44 45 38 36 40 39 36 33 29 28 28 28 27 25 24 22 21 21 22 23 24 26 29 30 32 36 41 46 45 39 41 40 48 47 43 34 36 30 25 20 16 18 22
57 79 87 32 37 32 29 28 27 27 26 27 27 25 22 21 21 22 24 25 26 27 30 30 32 35 39 40 34 28 30 32 36 37 38 31 37 25 26 22 24 25 25
18 12 17 17 23 25 25 25 26 27 28 28 25 23 21 21 22 25 28 30 30 31 30 29 29 31 32 29 24 17 9 19 32 33 28 36 32 23 24 25 22 28 26
Wind_Direction
188 197 203 204 210 217 216 209 212 220 229 234 242 228 196 181 215 205 187 177 171 173 192 253 301 306 310 312 314 307 310 305 298 268 290 288 287 288 296 290 292 301 295
178 188 194 199 206 216 221 220 220 223 233 241 244 224 217 188 200 185 175 175 170 167 180 307 314 306 316 314 308 310 311 314 301 290 293 297 299 295 284 273 280 287 294
183 190 201 200 202 206 220 222 225 231 243 251 242 224 214 194 185 176 176 189 198 236 239 276 292 311 313 312 312 306 303 289 290 297 295 288 292 291 269 273 290 293 297
200 202 211 211 203 206 216 225 226 231 246 247 259 243 209 192 181 179 178 184 207 233 227 286 308 314 318 315 306 304 306 305 312 311 299 291 293 299 280 274 293 293 276
207 207 210 213 211 215 216 224 230 239 241 214 163 151 174 179 179 184 179 207 229 238 277 315 323 322 322 311 308 302 308 320 317 302 294 278 279 282 275 258 279 272 275
212 210 208 215 218 222 222 226 231 239 224 196 169 165 172 179 195 211 223 243 231 250 263 311 322 324 322 312 306 301 309 311 303 303 290 281 270 262 251 254 258 270 285
210 211 210 219 220 224 225 225 232 237 224 203 192 193 197 197 204 211 218 209 211 239 275 294 318 318 315 306 302 308 314 315 316 301 288 280 268 265 269 275 281 272 270
212 211 208 216 219 222 224 223 227 231 223 211 211 212 214 210 206 208 206 218 223 253 273 293 312 312 313 306 311 317 321 322 322 309 302 290 282 281 283 287 291 291 287
212 204 196 204 218 220 223 221 220 222 213 205 202 204 205 204 203 209 214 223 235 245 261 282 301 305 309 312 317 323 325 326 325 313 300 289 289 292 294 292 290 296 297
195 194 198 197 185 200 208 205 211 204 194 191 191 188 192 195 200 211 220 235 244 251 258 277 289 298 309 316 319 328 328 330 330 319 313 310 305 304 304 300 298 302 305
186 186 200 193 191 182 189 196 196 188 186 184 184 186 197 211 212 221 219 244 253 252 258 276 282 295 308 314 323 335 334 335 339 331 325 320 313 309 303 306 310 307 301
187 186 194 185 184 186 180 180 187 192 193 192 192 196 203 219 223 235 247 260 265 270 266 264 256 262 269 286 328 346 344 344 340 335 330 332 323 314 311 310 310 308 303
194 191 192 188 189 192 189 190 193 190 193 197 199 199 210 222 227 234 243 248 246 248 256 262 265 257 246 249 278 307 322 333 337 330 325 325 323 314 313 310 306 299 295
200 196 201 206 201 201 204 206 208 206 205 208 212 210 232 236 247 252 262 264 265 266 269 263 257 253 254 257 265 284 300 315 318 319 321 319 319 316 314 310 304 299 297
207 206 208 214 216 215 217 224 227 230 231 234 238 239 244 251 258 260 258 260 262 262 261 258 255 252 252 257 264 274 286 298 302 304 312 318 322 316 312 309 304 303 302
215 216 220 216 216 224 223 229 233 237 238 238 240 244 249 254 261 260 263 264 262 258 261 266 263 262 258 255 263 271 279 290 295 298 301 309 314 318 315 305 299 297 298
218 220 223 224 222 223 227 229 234 235 241 243 243 246 252 264 262 268 267 265 265 263 260 261 263 266 267 268 264 268 274 274 285 289 292 298 303 308 310 302 293 292 291
222 220 222 220 219 222 225 227 230 239 243 246 249 251 255 262 272 274 273 271 270 267 265 262 266 268 266 266 266 264 267 267 273 280 290 292 294 298 302 298 288 289 289
231 226 225 221 219 222 226 228 234 241 246 253 257 257 263 268 268 268 269 273 277 278 271 266 264 267 265 263 263 259 263 263 264 268 279 282 285 289 295 292 284 285 286
243 237 228 226 223 224 228 234 239 240 236 252 263 257 258 258 261 263 271 277 279 279 277 273 269 269 271 267 266 263 258 258 259 261 266 275 279 280 287 286 281 281 282
254 241 232 228 225 225 226 235 240 256 245 235 249 247 246 254 261 269 278 281 277 277 275 277 275 275 277 279 277 275 271 261 260 255 255 267 277 271 278 279 276 277 281
251 240 230 222 225 220 219 225 241 229 224 230 232 236 243 254 264 275 280 279 277 277 278 280 282 286 289 288 283 281 268 260 255 250 253 262 268 263 269 270 269 273 278
243 224 219 217 218 226 232 233 241 248 225 222 227 234 243 254 266 275 281 285 286 283 281 285 289 293 295 298 291 282 271 258 251 243 249 256 256 255 260 260 265 275 280
240 217 207 214 212 216 221 227 234 220 216 223 231 237 247 257 266 276 284 290 292 288 289 290 293 297 307 307 304 286 267 259 243 230 240 238 243 241 243 247 268 286 287
238 243 228 219 203 209 217 217 215 220 222 229 236 244 251 259 269 276 285 292 294 293 292 292 296 303 316 319 316 295 264 237 232 212 229 231 241 232 247 248 254 272 279
271 341 156 156 192 201 206 214 219 223 228 234 242 247 252 261 273 282 289 292 295 292 289 291 295 304 317 326 326 305 314 239 204 207 223 234 227 238 256 255 245 259 268
Height
3184 3187 3189 3191 3193 3195 3196 3197 3198 3200 3202 3203 3205 3206 3207 3208 3211 3212 3214 3216 3217 3217 3219 3220 3221 3221 3220 3220 3218 3216 3215 3214 3213 3214 3210 3208 3207 3207 3207 3207 3206 3206 3205
3182 3184 3187 3188 3190 3192 3194 3195 3195 3197 3199 3201 3202 3203 3205 3207 3210 3211 3213 3215 3216 3217 3219 3220 3219 3219 3218 3217 3215 3214 3212 3211 3211 3209 3208 3207 3206 3205 3205 3204 3204 3203 3203
3179 3182 3184 3186 3188 3190 3191 3193 3193 3195 3197 3198 3198 3200 3203 3206 3209 3211 3212 3214 3215 3217 3218 3218 3218 3217 3216 3214 3212 3211 3210 3209 3208 3207 3206 3204 3203 3202 3202 3201 3201 3202 3202
3177 3179 3182 3184 3186 3187 3189 3191 3192 3193 3194 3195 3195 3194 3199 3204 3207 3210 3212 3213 3214 3215 3217 3216 3216 3216 3213 3211 3209 3208 3207 3206 3206 3204 3202 3201 3200 3199 3199 3199 3200 3199 3200
3174 3177 3180 3182 3184 3185 3187 3189 3190 3191 3193 3194 3193 3191 3196 3202 3206 3209 3211 3212 3213 3214 3215 3215 3214 3212 3210 3209 3207 3206 3205 3204 3203 3202 3200 3199 3198 3198 3199 3199 3199 3197 3196
3172 3175 3179 3181 3182 3184 3185 3187 3189 3190 3191 3193 3194 3196 3199 3201 3205 3207 3209 3210 3212 3212 3211 3212 3212 3210 3208 3207 3206 3205 3203 3202 3200 3199 3198 3197 3197 3196 3196 3196 3196 3195 3195
3169 3172 3176 3178 3180 3181 3183 3185 3187 3188 3189 3191 3194 3196 3198 3201 3203 3204 3206 3208 3209 3209 3210 3210 3210 3208 3206 3205 3204 3202 3201 3200 3199 3198 3196 3195 3194 3193 3194 3193 3192 3191 3190
3166 3169 3173 3175 3177 3178 3180 3182 3185 3186 3187 3189 3192 3194 3197 3199 3200 3202 3203 3205 3206 3207 3208 3208 3207 3206 3204 3203 3201 3200 3199 3198 3196 3196 3195 3193 3192 3191 3191 3191 3190 3189 3188
3161 3166 3169 3172 3173 3175 3176 3179 3182 3184 3185 3187 3189 3192 3194 3196 3198 3199 3201 3202 3203 3204 3205 3206 3205 3203 3202 3201 3199 3198 3197 3195 3194 3193 3192 3191 3190 3189 3188 3187 3186 3186 3185
3158 3163 3166 3168 3170 3172 3174 3177 3180 3182 3183 3185 3187 3189 3192 3194 3196 3198 3200 3200 3201 3201 3202 3202 3202 3201 3200 3199 3198 3197 3196 3194 3192 3192 3191 3190 3188 3187 3186 3185 3185 3184 3184
3155 3159 3163 3165 3168 3170 3172 3174 3177 3180 3182 3183 3186 3188 3190 3192 3194 3196 3197 3197 3198 3198 3198 3199 3199 3199 3198 3197 3196 3195 3194 3193 3191 3190 3188 3187 3186 3184 3183 3182 3181 3180 3179
3152 3156 3160 3163 3166 3168 3170 3172 3174 3177 3179 3181 3183 3186 3188 3189 3190 3192 3193 3194 3195 3195 3196 3195 3195 3195 3194 3194 3193 3193 3192 3191 3189 3188 3186 3184 3184 3182 3181 3180 3178 3177 3176
3148 3152 3156 3160 3163 3165 3168 3170 3171 3174 3176 3179 3181 3183 3184 3185 3187 3188 3189 3190 3190 3190 3191 3192 3193 3192 3191 3191 3191 3191 3190 3188 3186 3185 3184 3182 3180 3179 3178 3176 3175 3174 3173
3145 3149 3153 3156 3159 3162 3164 3166 3168 3170 3173 3175 3178 3180 3181 3183 3184 3185 3186 3187 3188 3187 3187 3187 3188 3188 3188 3188 3188 3187 3186 3185 3184 3183 3181 3180 3177 3176 3175 3174 3172 3170 3169
3141 3144 3148 3152 3155 3158 3161 3163 3164 3166 3169 3172 3174 3176 3178 3179 3180 3181 3182 3182 3183 3183 3182 3181 3182 3182 3183 3183 3183 3183 3182 3182 3181 3180 3179 3177 3175 3173 3171 3169 3168 3166 3164
3135 3138 3142 3146 3150 3153 3156 3157 3159 3162 3164 3167 3169 3171 3172 3173 3173 3176 3176 3176 3176 3176 3175 3175 3176 3176 3177 3177 3178 3177 3177 3177 3176 3176 3175 3174 3171 3169 3167 3164 3162 3160 3159
3127 3131 3135 3139 3142 3146 3149 3152 3154 3157 3159 3162 3164 3165 3167 3165 3167 3167 3169 3169 3168 3168 3167 3167 3167 3169 3172 3172 3171 3171 3171 3170 3169 3169 3168 3168 3167 3165 3162 3158 3156 3155 3153
3118 3122 3126 3130 3134 3138 3142 3144 3147 3149 3152 3155 3157 3159 3160 3160 3159 3160 3159 3159 3158 3157 3158 3159 3160 3162 3163 3164 3164 3164 3163 3162 3162 3161 3161 3160 3160 3158 3156 3153 3150 3149 3147
3111 3113 3117 3121 3124 3129 3132 3134 3137 3141 3144 3148 3148 3152 3153 3153 3152 3152 3151 3150 3149 3149 3149 3150 3151 3152 3153 3154 3154 3153 3153 3153 3153 3152 3151 3151 3151 3151 3149 3146 3144 3142 3141
3102 3104 3107 3111 3113 3116 3119 3121 3126 3131 3137 3139 3140 3144 3145 3145 3145 3144 3144 3143 3142 3142 3142 3142 3143 3142 3143 3143 3143 3143 3143 3142 3142 3142 3141 3142 3142 3142 3142 3139 3137 3136 3134
3093 3094 3097 3098 3103 3106 3111 3110 3111 3122 3126 3131 3134 3134 3137 3138 3138 3137 3137 3136 3135 3135 3135 3134 3135 3134 3134 3133 3131 3130 3129 3129 3128 3130 3130 3131 3132 3133 3133 3131 3130 3129 3127
3084 3085 3088 3090 3093 3096 3097 3099 3107 3111 3116 3121 3123 3125 3128 3129 3129 3129 3129 3129 3128 3127 3127 3127 3126 3125 3123 3120 3118 3113 3112 3112 3112 3116 3118 3120 3122 3123 3124 3123 3122 3122 3120
3069 3071 3076 3081 3086 3086 3089 3095 3095 3107 3109 3110 3114 3118 3120 3121 3120 3121 3121 3120 3120 3119 3119 3118 3117 3115 3112 3106 3097 3090 3087 3090 3096 3102 3105 3108 3111 3113 3114 3115 3114 3114 3114
3062 3058 3058 3071 3075 3081 3083 3089 3090 3094 3099 3104 3107 3110 3112 3112 3112 3113 3112 3111 3111 3111 3110 3109 3107 3104 3099 3090 3078 3070 3067 3069 3073 3085 3091 3094 3100 3101 3104 3106 3106 3106 3107
3028 3018 3014 3041 3066 3072 3077 3081 3082 3086 3092 3096 3100 3101 3102 3102 3103 3103 3103 3102 3101 3101 3100 3099 3097 3092 3087 3077 3065 3057 3054 3057 3061 3069 3079 3084 3090 3092 3096 3096 3098 3099 3100
3019 2995 3007 3029 3054 3062 3068 3072 3075 3080 3085 3089 3090 3091 3092 3093 3094 3094 3094 3092 3092 3091 3090 3089 3087 3085 3079 3072 3061 3056 3050 3050 3057 3062 3069 3076 3079 3084 3087 3089 3088 3093 3093